Regional Weather Roundup
Issued by NWS

Home | Current Version | Previous Version | Graphics & Text | Print | Product List | Glossary On
Versions: 1 2 3 4 5 6 7 8 9 10 11 12 13 14 15 16 17 18 19 20 21 22 23 24 25 26 27 28 29 30 31 32 33 34 35 36 37 38 39 40 41 42 43 44 45 46 47 48 49 50
000
ASUS43 KFSD 200310
RWRSD

WEATHER ROUNDUP FOR SOUTH DAKOTA
NATIONAL WEATHER SERVICE SIOUX FALLS SD
1000 PM CDT WED JUL 19 2017

NOTE: "FAIR" INDICATES FEW OR NO CLOUDS BELOW 12,000 FEET WITH NO
SIGNIFICANT WEATHER AND/OR OBSTRUCTIONS TO VISIBILITY.


SDZ001>005-009-010-012>017-200400-
NORTHWEST AND NORTH CENTRAL SOUTH DAKOTA

CITY           SKY/WX    TMP DP  RH WIND       PRES   REMARKS
BUFFALO          N/A     78  55  44 E8        29.98R
FAITH            N/A     77  61  57 NE8       30.00R
MOBRIDGE       CLEAR     76  67  73 NE9       29.94R
$$

SDZ012>016-024>037-041>051-057-063-072>074-200400-
SOUTHWEST AND SOUTH CENTRAL SOUTH DAKOTA

CITY           SKY/WX    TMP DP  RH WIND       PRES   REMARKS
RAPID CTY ARPT PTCLDY    77  57  50 N7        30.03R
PIERRE         CLEAR     80  68  66 NE10      29.91R
CUSTER         CLOUDY    71  53  52 NE15      30.19R
ELLSWORTH AFB  MOCLDY    81  57  43 N7        30.04R
PHILIP         PTCLDY    82  66  58 E10       29.94R
PINE RIDGE     CLEAR     82  59  45 NE10      29.99R
SPEARFISH      FAIR      75  59  57 E6        30.09S
WINNER         FAIR      80  66  62 S5        29.92R
$$

SDZ004>011-016>023-039-040-200400-
NORTHEAST SOUTH DAKOTA

CITY           SKY/WX    TMP DP  RH WIND       PRES   REMARKS
ABERDEEN       CLEAR     73  71  93 NE3       29.94R
WATERTOWN      PTCLDY    73  71  93 N9        29.94R
BROOKINGS      CLOUDY    76  69  79 E7        29.91S
SISSETON         N/A     72  70  93 S5        29.94R
$$

SDZ017-020-022-023-036>040-048>070-200400-
SOUTHEAST SOUTH DAKOTA

CITY           SKY/WX    TMP DP  RH WIND       PRES   REMARKS
SIOUX FALLS    CLOUDY    78  75  90 NE3       29.87R
HURON          CLOUDY    80  75  84 NE6       29.89R
CHAMBERLAIN    PTCLDY    84  68  58 NE3       29.92R
MITCHELL       CLOUDY    81  76  84 NW3       29.88R
YANKTON        CLOUDY    87  76  69 CALM      29.85R HX  97
$$

ABBREVIATIONS USED IN REMARKS
   TC - TEMPERATURE IN CELSIUS
  WCI - WIND CHILL INDEX
   HX - HEAT INDEX
  VSB - VISIBILITY




USA.gov is the U.S. government's official web portal to all federal, state and local government web resources and services.